Location: Alt?nova Orta
(36.9295°N, 30.7847°E)
Time: 19:45:13
(UTC+00:00)

Cosmos 1943 Rocket - Pass Details

Date: 17 February 2020
Orbit: 813 x 842 km, 71.0° (Epoch: 05 April)

Event Time Altitude Azimuth Distance (km) Brightness Sun altitude
Rises 02:49:28 0° 344° (NNW) 3,345 5.2 -23.5°
Reaches altitude 10° 02:52:00 10° 350° (N) 2,408 4.5 -23.0°
Maximum altitude 02:57:17 46° 64° (ENE) 1,078 3.1 -21.9°
Drops below altitude 10° 03:02:32 10° 137° (SE) 2,397 5.1 -20.9°
Sets 03:05:03 0° 143° (SE) 3,328 5.8 -20.4°
